Time,TemperatureF,DewpointF,PressureIn,WindDirection,WindDirectionDegrees,WindSpeedMPH,WindSpeedGustMPH,Humidity,HourlyPrecipIn,Conditions,Clouds,dailyrainin,SoftwareType,DateUTC
2013-09-07 00:00:00,59.2,55.3,30.00,South,172,0.0,0.0,87,0.00,,,0.00,Wunderground v.1.12,2013-09-07 06:00:00,
2013-09-07 00:10:00,59.3,55.4,30.00,SSE,167,0.0,0.0,87,0.00,,,0.00,Wunderground v.1.12,2013-09-07 06:10:00,
2013-09-07 00:15:00,59.3,55.1,30.00,SSE,164,0.0,0.0,86,0.00,,,0.00,Wunderground v.1.12,2013-09-07 06:15:00,
2013-09-07 00:20:00,59.3,55.4,30.00,South,171,0.0,0.0,87,0.00,,,0.00,Wunderground v.1.12,2013-09-07 06:20:00,
2013-09-07 00:25:00,59.0,55.1,30.00,South,172,0.0,0.0,87,0.00,,,0.00,Wunderground v.1.12,2013-09-07 06:25:00,
2013-09-07 00:30:00,58.8,55.3,30.00,SSE,167,0.0,0.0,88,0.00,,,0.00,Wunderground v.1.12,2013-09-07 06:30:00,
2013-09-07 00:40:00,58.4,54.9,30.01,South,172,0.0,0.0,88,0.00,,,0.00,Wunderground v.1.12,2013-09-07 06:40:00,
2013-09-07 00:45:00,58.4,54.5,30.00,South,169,0.0,0.0,87,0.00,,,0.00,Wunderground v.1.12,2013-09-07 06:45:00,
2013-09-07 00:50:00,58.4,54.9,30.01,South,170,0.0,0.0,88,0.00,,,0.00,Wunderground v.1.12,2013-09-07 06:50:00,
2013-09-07 00:55:00,58.3,55.1,30.01,South,172,0.0,0.0,89,0.00,,,0.00,Wunderground v.1.12,2013-09-07 06:55:00,
2013-09-07 01:00:00,58.2,55.0,30.01,South,176,0.0,0.0,89,0.00,,,0.00,Wunderground v.1.12,2013-09-07 07:00:00,
2013-09-07 01:05:00,58.1,54.9,30.00,South,172,0.0,0.0,89,0.00,,,0.00,Wunderground v.1.12,2013-09-07 07:05:00,
2013-09-07 01:10:00,58.0,55.1,30.00,South,171,0.0,0.0,90,0.00,,,0.00,Wunderground v.1.12,2013-09-07 07:10:00,
2013-09-07 01:15:00,57.9,55.0,30.01,South,173,0.0,0.0,90,0.00,,,0.00,Wunderground v.1.12,2013-09-07 07:15:00,
2013-09-07 01:20:00,57.7,55.1,30.01,South,171,0.0,0.0,91,0.00,,,0.00,Wunderground v.1.12,2013-09-07 07:20:00,
2013-09-07 01:30:00,57.3,54.7,30.01,South,170,0.0,0.0,91,0.00,,,0.00,Wunderground v.1.12,2013-09-07 07:30:00,
2013-09-07 01:35:00,57.4,54.8,30.01,South,173,0.0,0.0,91,0.00,,,0.00,Wunderground v.1.12,2013-09-07 07:35:00,
2013-09-07 01:40:00,57.4,54.8,30.01,South,169,0.0,0.0,91,0.00,,,0.00,Wunderground v.1.12,2013-09-07 07:40:00,
2013-09-07 01:45:00,57.4,54.8,30.01,South,173,0.0,0.0,91,0.00,,,0.00,Wunderground v.1.12,2013-09-07 07:45:00,
2013-09-07 01:50:00,57.2,54.9,30.01,South,170,0.0,0.0,92,0.00,,,0.00,Wunderground v.1.12,2013-09-07 07:50:00,
2013-09-07 01:55:00,57.1,54.8,30.01,SSE,166,0.0,0.0,92,0.00,,,0.00,Wunderground v.1.12,2013-09-07 07:55:00,
2013-09-07 02:00:00,57.2,54.9,30.01,South,174,0.0,0.0,92,0.00,,,0.00,Wunderground v.1.12,2013-09-07 08:00:00,
2013-09-07 02:05:00,57.2,54.9,30.01,South,172,0.0,0.0,92,0.00,,,0.00,Wunderground v.1.12,2013-09-07 08:05:00,
2013-09-07 02:15:00,57.4,55.4,30.01,SSE,167,0.0,0.0,93,0.00,,,0.00,Wunderground v.1.12,2013-09-07 08:15:00,
2013-09-07 02:20:00,57.4,55.4,30.01,SSE,167,0.0,0.0,93,0.00,,,0.00,Wunderground v.1.12,2013-09-07 08:20:00,
2013-09-07 02:25:00,57.4,55.4,30.00,SSE,165,0.0,0.0,93,0.00,,,0.00,Wunderground v.1.12,2013-09-07 08:25:00,
2013-09-07 02:30:00,57.4,55.4,30.01,SSE,166,0.0,0.0,93,0.00,,,0.00,Wunderground v.1.12,2013-09-07 08:30:00,
2013-09-07 02:35:00,57.3,55.0,30.01,SSE,166,0.0,0.0,92,0.00,,,0.00,Wunderground v.1.12,2013-09-07 08:35:00,
2013-09-07 02:40:00,57.4,55.4,30.00,SSE,161,0.0,0.0,93,0.00,,,0.00,Wunderground v.1.12,2013-09-07 08:40:00,
2013-09-07 02:50:00,57.3,55.3,30.00,SSE,165,0.0,0.0,93,0.00,,,0.00,Wunderground v.1.12,2013-09-07 08:50:00,
2013-09-07 02:55:00,57.1,55.4,30.01,SSE,167,0.0,0.0,94,0.00,,,0.00,Wunderground v.1.12,2013-09-07 08:55:00,
2013-09-07 03:00:00,57.1,55.4,30.00,SSE,167,0.0,0.0,94,0.00,,,0.00,Wunderground v.1.12,2013-09-07 09:00:00,
2013-09-07 03:05:00,56.9,55.2,30.00,SSE,164,0.0,0.0,94,0.00,,,0.00,Wunderground v.1.12,2013-09-07 09:05:00,
2013-09-07 03:10:00,56.8,55.1,30.00,SSE,166,0.0,0.0,94,0.00,,,0.00,Wunderground v.1.12,2013-09-07 09:10:00,
2013-09-07 03:20:00,56.6,54.9,30.00,SSE,166,0.0,0.0,94,0.00,,,0.00,Wunderground v.1.12,2013-09-07 09:20:00,
2013-09-07 03:25:00,56.6,54.9,30.00,SSE,166,0.0,0.0,94,0.00,,,0.00,Wunderground v.1.12,2013-09-07 09:25:00,
2013-09-07 03:30:00,56.5,55.1,30.01,SSE,168,0.0,0.0,95,0.00,,,0.00,Wunderground v.1.12,2013-09-07 09:30:00,
2013-09-07 03:35:00,56.5,54.8,30.01,South,169,0.0,0.0,94,0.00,,,0.00,Wunderground v.1.12,2013-09-07 09:35:00,
2013-09-07 03:40:00,56.5,54.8,30.01,SSE,168,0.0,0.0,94,0.00,,,0.00,Wunderground v.1.12,2013-09-07 09:40:00,
2013-09-07 03:50:00,56.6,54.6,30.01,SSE,165,0.0,0.0,93,0.00,,,0.00,Wunderground v.1.12,2013-09-07 09:50:00,
2013-09-07 03:55:00,56.6,54.9,30.01,SSE,168,0.0,0.0,94,0.00,,,0.00,Wunderground v.1.12,2013-09-07 09:55:00,
2013-09-07 04:00:00,56.7,55.0,30.01,SSE,167,0.0,0.0,94,0.00,,,0.00,Wunderground v.1.12,2013-09-07 10:00:00,
2013-09-07 04:05:00,56.6,54.9,30.02,SSE,165,0.0,0.0,94,0.00,,,0.00,Wunderground v.1.12,2013-09-07 10:05:00,
2013-09-07 04:10:00,56.8,54.8,30.01,SSE,158,0.0,0.0,93,0.00,,,0.00,Wunderground v.1.12,2013-09-07 10:10:00,
2013-09-07 04:20:00,56.7,55.0,30.01,SSE,156,0.0,0.0,94,0.00,,,0.00,Wunderground v.1.12,2013-09-07 10:20:00,
2013-09-07 04:25:00,56.6,54.9,30.01,SSE,158,0.0,0.0,94,0.00,,,0.00,Wunderground v.1.12,2013-09-07 10:25:00,
2013-09-07 04:30:00,56.4,54.7,30.02,SSE,160,0.0,0.0,94,0.00,,,0.00,Wunderground v.1.12,2013-09-07 10:30:00,
2013-09-07 04:35:00,56.2,54.5,30.01,SSE,163,0.0,0.0,94,0.00,,,0.00,Wunderground v.1.12,2013-09-07 10:35:00,
2013-09-07 04:40:00,55.9,54.2,30.01,SSE,147,0.0,0.0,94,0.00,,,0.00,Wunderground v.1.12,2013-09-07 10:40:00,
2013-09-07 04:45:00,55.7,54.0,30.01,SSE,154,0.0,0.0,94,0.00,,,0.00,Wunderground v.1.12,2013-09-07 10:45:00,
2013-09-07 04:55:00,55.2,53.5,30.01,N/A,-32768,0.0,0.0,94,0.00,,,0.00,Wunderground v.1.12,2013-09-07 10:55:00,
2013-09-07 05:00:00,55.2,53.8,30.01,SSE,160,0.0,0.0,95,0.00,,,0.00,Wunderground v.1.12,2013-09-07 11:00:00,
2013-09-07 05:05:00,55.0,53.6,30.01,SSE,151,0.0,0.0,95,0.00,,,0.00,Wunderground v.1.12,2013-09-07 11:05:00,
2013-09-07 05:10:00,54.9,53.5,30.01,SSE,151,0.0,0.0,95,0.00,,,0.00,Wunderground v.1.12,2013-09-07 11:10:00,
2013-09-07 05:15:00,54.7,53.3,30.01,SSE,151,0.0,0.0,95,0.00,,,0.00,Wunderground v.1.12,2013-09-07 11:15:00,
2013-09-07 05:20:00,54.5,53.1,30.01,SSE,152,0.0,0.0,95,0.00,,,0.00,Wunderground v.1.12,2013-09-07 11:20:00,
2013-09-07 05:25:00,54.4,53.0,30.01,SSE,152,0.0,0.0,95,0.00,,,0.00,Wunderground v.1.12,2013-09-07 11:25:00,
2013-09-07 05:30:00,54.2,52.5,30.01,SSE,152,0.0,0.0,94,0.00,,,0.00,Wunderground v.1.12,2013-09-07 11:30:00,
2013-09-07 05:35:00,54.0,52.3,30.01,SSE,157,0.0,0.0,94,0.00,,,0.00,Wunderground v.1.12,2013-09-07 11:35:00,
2013-09-07 05:40:00,53.6,52.2,30.01,SSE,158,0.0,0.0,95,0.00,,,0.00,Wunderground v.1.12,2013-09-07 11:40:00,
2013-09-07 05:45:00,53.4,52.0,30.01,SSE,161,0.0,0.0,95,0.00,,,0.00,Wunderground v.1.12,2013-09-07 11:45:00,
2013-09-07 05:55:00,53.2,52.1,30.01,SSE,160,0.0,0.0,96,0.00,,,0.00,Wunderground v.1.12,2013-09-07 11:55:00,
2013-09-07 06:00:00,53.1,52.3,30.01,SSE,156,0.0,0.0,97,0.00,,,0.00,Wunderground v.1.12,2013-09-07 12:00:00,
2013-09-07 06:05:00,52.9,52.1,30.01,SSE,154,0.0,0.0,97,0.00,,,0.00,Wunderground v.1.12,2013-09-07 12:05:00,
2013-09-07 06:10:00,52.8,51.7,30.01,SSE,162,0.0,0.0,96,0.00,,,0.00,Wunderground v.1.12,2013-09-07 12:10:00,
2013-09-07 06:15:00,52.6,51.5,30.01,SSE,158,0.0,0.0,96,0.00,,,0.00,Wunderground v.1.12,2013-09-07 12:15:00,
2013-09-07 06:20:00,52.6,51.5,30.02,SSE,154,0.0,0.0,96,0.00,,,0.00,Wunderground v.1.12,2013-09-07 12:20:00,
2013-09-07 06:25:00,52.6,51.8,30.02,SSE,158,0.0,0.0,97,0.00,,,0.00,Wunderground v.1.12,2013-09-07 12:25:00,
2013-09-07 06:30:00,52.6,52.1,30.02,SSE,154,0.0,0.0,98,0.00,,,0.00,Wunderground v.1.12,2013-09-07 12:30:00,
2013-09-07 06:35:00,52.7,52.2,30.02,SSE,150,0.0,0.0,98,0.00,,,0.00,Wunderground v.1.12,2013-09-07 12:35:00,
2013-09-07 06:45:00,52.8,52.3,30.01,SSE,155,0.0,0.0,98,0.00,,,0.00,Wunderground v.1.12,2013-09-07 12:45:00,
2013-09-07 06:50:00,52.7,52.2,30.02,SSE,152,0.0,0.0,98,0.00,,,0.00,Wunderground v.1.12,2013-09-07 12:50:00,
2013-09-07 07:00:00,52.6,52.1,30.01,SSE,147,0.0,0.0,98,0.00,,,0.00,Wunderground v.1.12,2013-09-07 13:00:00,
2013-09-07 07:05:00,52.6,52.1,30.02,SSE,147,0.0,0.0,98,0.00,,,0.00,Wunderground v.1.12,2013-09-07 13:05:00,
2013-09-07 07:10:00,52.6,52.3,30.02,SE,145,0.0,0.0,99,0.00,,,0.00,Wunderground v.1.12,2013-09-07 13:10:00,
2013-09-07 07:15:00,52.9,52.6,30.02,SE,145,0.0,0.0,99,0.00,,,0.00,Wunderground v.1.12,2013-09-07 13:15:00,
2013-09-07 07:20:00,53.0,52.7,30.02,SE,143,0.0,0.0,99,0.00,,,0.00,Wunderground v.1.12,2013-09-07 13:20:00,
2013-09-07 07:30:00,53.4,53.1,30.02,SE,138,0.0,0.0,99,0.00,,,0.00,Wunderground v.1.12,2013-09-07 13:30:00,
2013-09-07 07:35:00,53.6,53.0,30.02,SE,138,0.0,0.0,98,0.00,,,0.00,Wunderground v.1.12,2013-09-07 13:35:00,
2013-09-07 07:40:00,53.9,53.3,30.02,SE,136,0.0,0.0,98,0.00,,,0.00,Wunderground v.1.12,2013-09-07 13:40:00,
2013-09-07 07:50:00,54.3,53.7,30.02,SE,136,0.0,0.0,98,0.00,,,0.00,Wunderground v.1.12,2013-09-07 13:50:00,
2013-09-07 07:55:00,54.5,53.7,30.02,SE,131,0.0,0.0,97,0.00,,,0.00,Wunderground v.1.12,2013-09-07 13:55:00,
2013-09-07 08:00:00,54.7,53.6,30.02,SE,136,0.0,0.0,96,0.00,,,0.00,Wunderground v.1.12,2013-09-07 14:00:00,
2013-09-07 08:05:00,54.0,52.9,30.02,N/A,-737280,0.0,0.0,96,0.00,,,0.00,Wunderground v.1.12,2013-09-07 14:05:00,
2013-09-07 08:10:00,54.8,53.4,30.02,SE,138,0.0,0.0,95,0.00,,,0.00,Wunderground v.1.12,2013-09-07 14:10:00,
2013-09-07 08:15:00,54.9,53.2,30.02,SE,135,0.0,0.0,94,0.00,,,0.00,Wunderground v.1.12,2013-09-07 14:15:00,
2013-09-07 08:25:00,55.0,53.9,30.02,SE,142,0.0,0.0,96,0.00,,,0.00,Wunderground v.1.12,2013-09-07 14:25:00,
2013-09-07 08:35:00,55.4,54.6,30.02,SE,141,0.0,0.0,97,0.00,,,0.00,Wunderground v.1.12,2013-09-07 14:35:00,
2013-09-07 08:40:00,55.5,54.7,30.02,SE,141,0.0,0.0,97,0.00,,,0.00,Wunderground v.1.12,2013-09-07 14:40:00,
2013-09-07 08:45:00,55.7,54.9,30.02,SE,140,0.0,0.0,97,0.00,,,0.00,Wunderground v.1.12,2013-09-07 14:45:00,
2013-09-07 08:50:00,55.7,54.6,30.02,SE,140,0.0,0.0,96,0.00,,,0.00,Wunderground v.1.12,2013-09-07 14:50:00,
2013-09-07 09:00:00,56.0,54.9,30.03,SE,142,0.0,0.0,96,0.00,,,0.00,Wunderground v.1.12,2013-09-07 15:00:00,
2013-09-07 09:05:00,56.2,55.1,30.02,SE,138,0.0,0.0,96,0.00,,,0.00,Wunderground v.1.12,2013-09-07 15:05:00,
2013-09-07 09:10:00,56.4,55.3,30.02,SE,140,0.0,0.0,96,0.00,,,0.00,Wunderground v.1.12,2013-09-07 15:10:00,
2013-09-07 09:15:00,56.6,55.2,30.02,SE,132,0.0,0.0,95,0.00,,,0.00,Wunderground v.1.12,2013-09-07 15:15:00,
2013-09-07 09:20:00,56.8,55.1,30.02,SE,138,0.0,0.0,94,0.00,,,0.00,Wunderground v.1.12,2013-09-07 15:20:00,
2013-09-07 09:25:00,57.0,55.6,30.02,SE,138,0.0,0.0,95,0.00,,,0.00,Wunderground v.1.12,2013-09-07 15:25:00,
2013-09-07 09:35:00,57.5,55.8,30.02,SE,136,0.0,0.0,94,0.00,,,0.00,Wunderground v.1.12,2013-09-07 15:35:00,
2013-09-07 09:40:00,57.9,56.2,30.02,SE,138,0.0,0.0,94,0.00,,,0.00,Wunderground v.1.12,2013-09-07 15:40:00,
2013-09-07 09:45:00,58.5,56.2,30.02,SE,133,0.0,0.0,92,0.00,,,0.00,Wunderground v.1.12,2013-09-07 15:45:00,
2013-09-07 09:50:00,59.2,56.3,30.02,SE,128,0.0,0.0,90,0.00,,,0.00,Wunderground v.1.12,2013-09-07 15:50:00,
2013-09-07 09:55:00,60.0,56.7,30.02,SSE,153,0.0,0.0,89,0.00,,,0.00,Wunderground v.1.12,2013-09-07 15:55:00,
2013-09-07 10:00:00,61.2,57.3,30.02,ESE,109,0.0,0.0,87,0.00,,,0.00,Wunderground v.1.12,2013-09-07 16:00:00,
2013-09-07 10:10:00,61.9,57.7,30.02,South,180,0.0,0.0,86,0.00,,,0.00,Wunderground v.1.12,2013-09-07 16:10:00,
2013-09-07 10:15:00,62.8,57.9,30.02,N/A,-32768,0.0,0.0,84,0.00,,,0.00,Wunderground v.1.12,2013-09-07 16:15:00,
2013-09-07 10:20:00,64.1,59.5,30.02,N/A,-32768,0.0,0.0,85,0.00,,,0.00,Wunderground v.1.12,2013-09-07 16:20:00,
2013-09-07 10:25:00,65.8,59.8,30.02,N/A,-32768,0.0,0.0,81,0.00,,,0.00,Wunderground v.1.12,2013-09-07 16:25:00,
2013-09-07 10:30:00,67.0,59.9,30.02,South,171,0.0,0.0,78,0.00,,,0.00,Wunderground v.1.12,2013-09-07 16:30:00,
2013-09-07 10:40:00,68.2,60.7,30.01,South,173,0.0,0.0,77,0.00,,,0.00,Wunderground v.1.12,2013-09-07 16:40:00,
2013-09-07 10:45:00,69.0,60.7,30.01,SSW,208,0.0,0.0,75,0.00,,,0.00,Wunderground v.1.12,2013-09-07 16:45:00,
2013-09-07 10:50:00,69.9,61.2,30.01,SSW,198,0.0,0.0,74,0.00,,,0.00,Wunderground v.1.12,2013-09-07 16:50:00,
2013-09-07 10:55:00,70.7,62.0,30.01,N/A,-32768,0.0,0.0,74,0.00,,,0.00,Wunderground v.1.12,2013-09-07 16:55:00,
2013-09-07 11:00:00,71.5,62.0,30.01,N/A,-32768,0.0,0.0,72,0.00,,,0.00,Wunderground v.1.12,2013-09-07 17:00:00,
2013-09-07 11:10:00,71.5,62.0,30.01,N/A,-32768,0.0,0.0,72,0.00,,,0.00,Wunderground v.1.12,2013-09-07 17:10:00,
2013-09-07 11:15:00,71.8,61.5,30.00,N/A,-737280,0.0,0.0,70,0.00,,,0.00,Wunderground v.1.12,2013-09-07 17:15:00,
2013-09-07 11:20:00,72.1,63.0,30.01,N/A,-32768,0.0,0.0,73,0.00,,,0.00,Wunderground v.1.12,2013-09-07 17:20:00,
2013-09-07 11:25:00,72.2,61.9,30.00,North,0,0.0,0.0,70,0.00,,,0.00,Wunderground v.1.12,2013-09-07 17:25:00,
2013-09-07 11:30:00,72.1,61.8,30.01,NNW,346,0.0,0.0,70,0.00,,,0.00,Wunderground v.1.12,2013-09-07 17:30:00,
2013-09-07 11:35:00,72.5,61.7,30.00,NNW,334,0.0,0.0,69,0.00,,,0.00,Wunderground v.1.12,2013-09-07 17:35:00,
2013-09-07 11:40:00,72.8,62.4,30.00,NNW,327,0.0,0.0,70,0.00,,,0.00,Wunderground v.1.12,2013-09-07 17:40:00,
2013-09-07 11:45:00,73.1,61.9,30.00,NW,310,0.0,0.0,68,0.00,,,0.00,Wunderground v.1.12,2013-09-07 17:45:00,
2013-09-07 11:50:00,73.4,62.6,30.00,NNW,330,0.0,0.0,69,0.00,,,0.00,Wunderground v.1.12,2013-09-07 17:50:00,
2013-09-07 11:55:00,73.6,62.0,29.99,N/A,-32768,0.0,0.0,67,0.00,,,0.00,Wunderground v.1.12,2013-09-07 17:55:00,
2013-09-07 12:00:00,73.5,62.7,29.99,North,354,0.0,0.0,69,0.00,,,0.00,Wunderground v.1.12,2013-09-07 18:00:00,
2013-09-07 12:10:00,74.0,62.3,29.99,North,0,0.0,0.0,67,0.00,,,0.00,Wunderground v.1.12,2013-09-07 18:10:00,
2013-09-07 12:15:00,74.0,63.2,29.99,NNW,331,0.0,0.0,69,0.00,,,0.00,Wunderground v.1.12,2013-09-07 18:15:00,
2013-09-07 12:20:00,74.0,62.8,29.99,NW,316,0.0,0.0,68,0.00,,,0.00,Wunderground v.1.12,2013-09-07 18:20:00,
2013-09-07 12:25:00,73.9,62.7,29.99,North,0,0.0,0.0,68,0.00,,,0.00,Wunderground v.1.12,2013-09-07 18:25:00,
2013-09-07 12:30:00,73.9,62.7,29.99,North,0,0.0,0.0,68,0.00,,,0.00,Wunderground v.1.12,2013-09-07 18:30:00,
2013-09-07 12:35:00,73.8,63.0,29.98,North,0,0.0,0.0,69,0.00,,,0.00,Wunderground v.1.12,2013-09-07 18:35:00,
2013-09-07 12:40:00,73.6,63.2,29.98,North,353,0.0,0.0,70,0.00,,,0.00,Wunderground v.1.12,2013-09-07 18:40:00,
2013-09-07 12:45:00,73.7,62.5,29.98,NNW,347,0.0,0.0,68,0.00,,,0.00,Wunderground v.1.12,2013-09-07 18:45:00,
2013-09-07 12:50:00,73.7,62.9,29.97,North,349,0.0,0.0,69,0.00,,,0.00,Wunderground v.1.12,2013-09-07 18:50:00,
2013-09-07 13:00:00,74.2,63.4,29.97,North,354,0.0,0.0,69,0.00,,,0.00,Wunderground v.1.12,2013-09-07 19:00:00,
2013-09-07 13:05:00,73.8,63.0,29.97,N/A,-32768,0.0,0.0,69,0.00,,,0.00,Wunderground v.1.12,2013-09-07 19:05:00,
2013-09-07 13:15:00,73.2,62.8,29.97,North,352,0.0,0.0,70,0.00,,,0.00,Wunderground v.1.12,2013-09-07 19:15:00,
2013-09-07 13:20:00,73.3,63.7,29.96,N/A,-32768,0.0,0.0,72,0.00,,,0.00,Wunderground v.1.12,2013-09-07 19:20:00,
2013-09-07 13:25:00,73.6,63.6,29.96,N/A,-32768,0.0,0.0,71,0.00,,,0.00,Wunderground v.1.12,2013-09-07 19:25:00,
2013-09-07 13:30:00,73.8,63.8,29.96,N/A,-32768,0.0,0.0,71,0.00,,,0.00,Wunderground v.1.12,2013-09-07 19:30:00,
2013-09-07 13:35:00,73.4,63.0,29.96,North,0,0.0,0.0,70,0.00,,,0.00,Wunderground v.1.12,2013-09-07 19:35:00,
2013-09-07 13:40:00,73.3,64.1,29.96,North,0,0.0,0.0,73,0.00,,,0.00,Wunderground v.1.12,2013-09-07 19:40:00,
2013-09-07 13:50:00,72.5,62.2,29.96,North,350,0.0,0.0,70,0.00,,,0.00,Wunderground v.1.12,2013-09-07 19:50:00,
2013-09-07 13:55:00,72.5,62.6,29.95,North,0,0.0,0.0,71,0.00,,,0.00,Wunderground v.1.12,2013-09-07 19:55:00,
2013-09-07 14:00:00,72.4,62.1,29.95,North,358,0.0,0.0,70,0.00,,,0.00,Wunderground v.1.12,2013-09-07 20:00:00,
2013-09-07 14:05:00,72.2,62.3,29.95,NW,321,0.0,0.0,71,0.00,,,0.00,Wunderground v.1.12,2013-09-07 20:05:00,
2013-09-07 14:10:00,72.3,62.0,29.95,North,357,0.0,0.0,70,0.00,,,0.00,Wunderground v.1.12,2013-09-07 20:10:00,
2013-09-07 14:20:00,72.6,62.7,29.95,North,357,0.0,0.0,71,0.00,,,0.00,Wunderground v.1.12,2013-09-07 20:20:00,
2013-09-07 14:25:00,72.4,62.1,29.95,North,358,0.0,0.0,70,0.00,,,0.00,Wunderground v.1.12,2013-09-07 20:25:00,
2013-09-07 14:30:00,72.4,61.7,29.95,North,357,0.0,0.0,69,0.00,,,0.00,Wunderground v.1.12,2013-09-07 20:30:00,
2013-09-07 14:35:00,72.7,62.8,29.95,North,0,0.0,0.0,71,0.00,,,0.00,Wunderground v.1.12,2013-09-07 20:35:00,
2013-09-07 14:40:00,72.8,62.8,29.94,N/A,-32768,0.0,0.0,71,0.00,,,0.00,Wunderground v.1.12,2013-09-07 20:40:00,
2013-09-07 14:50:00,72.8,63.6,29.94,N/A,-32768,0.0,0.0,73,0.00,,,0.00,Wunderground v.1.12,2013-09-07 20:50:00,
2013-09-07 14:55:00,73.3,63.3,29.94,N/A,-32768,0.0,0.0,71,0.00,,,0.00,Wunderground v.1.12,2013-09-07 20:55:00,
2013-09-07 15:00:00,73.4,63.8,29.94,N/A,-32768,0.0,0.0,72,0.00,,,0.00,Wunderground v.1.12,2013-09-07 21:00:00,
2013-09-07 15:05:00,73.6,62.4,29.93,North,0,0.0,0.0,68,0.00,,,0.00,Wunderground v.1.12,2013-09-07 21:05:00,
2013-09-07 15:10:00,73.6,63.2,29.93,N/A,-32768,0.0,0.0,70,0.00,,,0.00,Wunderground v.1.12,2013-09-07 21:10:00,
2013-09-07 15:15:00,73.8,63.0,29.93,NNW,342,0.0,0.0,69,0.00,,,0.00,Wunderground v.1.12,2013-09-07 21:15:00,
2013-09-07 15:20:00,73.9,63.5,29.93,N/A,-32768,0.0,0.0,70,0.00,,,0.00,Wunderground v.1.12,2013-09-07 21:20:00,